Terminal Aerodrome Forecast
Issued by NWS

Home | Current Version | Previous Version | Text Only | Print | Product List | Glossary On
Versions: 1 2 3 4 5 6 7 8 9 10 11 12 13 14 15 16 17 18
000
FTUS43 KDLH 231100
TAFHYR
TAF
KHYR 231134Z 2312/2412 00000KT 1/2SM FG VV002
     FM231300 VRB03KT P6SM SCT050
     FM231600 33005KT P6SM SCT035
      TEMPO 2318/2322 BKN045
     FM240000 VRB02KT P6SM SCT050
     FM240900 00000KT 2SM BR SCT003=

USA.gov is the U.S. government's official web portal to all federal, state and local government web resources and services.